SKW3451 KSBP-KSEA

Flight info

Callsign SKW3451
Flight time 1h 56m
Altitude 38000
Route CREPE3 MQO CLMNS LIBBO RBL LMT HAWKZ8
Aircraft A319/M-SDE3FGHIRWY/LB1

Departure

Time 2026-04-19 03:10
Airport San Luis County Regional Airport (KSBP)

Arrival

Time 2026-04-19 05:07
Airport Seattle–Tacoma International Airport (KSEA)
Time Latitude Longitude Altitude Speed Heading
2026-04-19 02:51 35.23790 -120.63749 202 ft 0 kts
2026-04-19 03:04 35.23785 -120.63749 202 ft 3 kts
2026-04-19 03:04 35.23759 -120.63753 214 ft 4 kts
2026-04-19 03:04 35.23732 -120.63757 212 ft 4 kts
2026-04-19 03:05 35.23716 -120.63760 212 ft 0 kts
2026-04-19 03:07 35.23729 -120.63765 204 ft 5 kts 333°
2026-04-19 03:07 35.23741 -120.63840 206 ft 13 kts 270°
2026-04-19 03:07 35.23720 -120.63881 202 ft 6 kts 152°
2026-04-19 03:07 35.23689 -120.63832 213 ft 7 kts 125°
2026-04-19 03:08 35.23660 -120.63781 216 ft 8 kts 125°
2026-04-19 03:08 35.23613 -120.63698 215 ft 16 kts 126°
2026-04-19 03:08 35.23534 -120.63560 217 ft 23 kts 124°
2026-04-19 03:08 35.23432 -120.63382 221 ft 24 kts 125°
2026-04-19 03:09 35.23348 -120.63245 224 ft 8 kts 144°
2026-04-19 03:09 35.23309 -120.63244 224 ft 7 kts 203°
2026-04-19 03:09 35.23281 -120.63315 223 ft 13 kts 297°
2026-04-19 03:09 35.23314 -120.63366 221 ft 0 kts 303°
2026-04-19 03:10 35.23334 -120.63403 224 ft 32 kts 304°
2026-04-19 03:10 35.23623 -120.63911 205 ft 109 kts 305°
2026-04-19 03:10 35.24174 -120.64854 335 ft 147 kts 304°
2026-04-19 03:10 35.24706 -120.65801 1153 ft 132 kts 303°
2026-04-19 03:11 35.25219 -120.66732 1754 ft 132 kts 303°
2026-04-19 03:11 35.25761 -120.67710 2183 ft 149 kts 303°
2026-04-19 03:11 35.26388 -120.68837 2514 ft 171 kts 303°
2026-04-19 03:11 35.27098 -120.70108 2868 ft 188 kts 303°
2026-04-19 03:12 35.27881 -120.71500 3212 ft 210 kts 304°
2026-04-19 03:12 35.28769 -120.73068 3573 ft 238 kts 304°
2026-04-19 03:12 35.29767 -120.74819 4114 ft 261 kts 304°
2026-04-19 03:12 35.30828 -120.76672 4965 ft 270 kts 304°
2026-04-19 03:13 35.31919 -120.78581 5930 ft 276 kts 304°
2026-04-19 03:13 35.33030 -120.80524 6890 ft 281 kts 304°
2026-04-19 03:13 35.33706 -120.81883 7499 ft 285 kts 294°
2026-04-19 03:13 35.34213 -120.84223 8413 ft 287 kts 271°
2026-04-19 03:14 35.33917 -120.86631 9272 ft 290 kts 246°
2026-04-19 03:14 35.32803 -120.88675 10117 ft 292 kts 221°
2026-04-19 03:14 35.31086 -120.89960 11024 ft 291 kts 197°
2026-04-19 03:14 35.29087 -120.90253 11934 ft 293 kts 174°
2026-04-19 03:15 35.27153 -120.89491 12813 ft 297 kts 150°
2026-04-19 03:15 35.25635 -120.87769 13636 ft 304 kts 126°
2026-04-19 03:15 35.24849 -120.85343 14436 ft 314 kts 100°
2026-04-19 03:15 35.25016 -120.82638 14999 ft 333 kts 74°
2026-04-19 03:16 35.26252 -120.80134 15291 ft 358 kts 45°
2026-04-19 03:16 35.28395 -120.78529 15853 ft 369 kts 17°
2026-04-19 03:16 35.30942 -120.78224 16470 ft 372 kts 351°
2026-04-19 03:16 35.33361 -120.79292 17099 ft 373 kts 324°
2026-04-19 03:17 35.35159 -120.81521 17748 ft 368 kts 297°
2026-04-19 03:17 35.35979 -120.84443 18368 ft 363 kts 271°
2026-04-19 03:17 35.35671 -120.87453 18982 ft 357 kts 246°
2026-04-19 03:17 35.34507 -120.90136 19619 ft 358 kts 236°
2026-04-19 03:18 35.33335 -120.92841 20239 ft 364 kts 245°
2026-04-19 03:18 35.32889 -120.95922 20808 ft 377 kts 270°
2026-04-19 03:18 35.33438 -120.99088 21398 ft 387 kts 287°
2026-04-19 03:18 35.34594 -121.02097 21994 ft 394 kts 296°
2026-04-19 03:19 35.36027 -121.04973 22554 ft 398 kts 300°
2026-04-19 03:19 35.37532 -121.07844 23078 ft 401 kts 299°
2026-04-19 03:19 35.38986 -121.10779 23600 ft 405 kts 297°
2026-04-19 03:19 35.40352 -121.13759 24118 ft 408 kts 296°
2026-04-19 03:20 35.41974 -121.16702 24630 ft 416 kts 305°
2026-04-19 03:20 35.44027 -121.19237 25116 ft 423 kts 319°
2026-04-19 03:20 35.46598 -121.21031 25593 ft 431 kts 337°
2026-04-19 03:20 35.49530 -121.21850 26048 ft 436 kts 354°
2026-04-19 03:21 35.52572 -121.22098 26507 ft 439 kts 355°
2026-04-19 03:21 35.55628 -121.22311 26971 ft 442 kts 356°
2026-04-19 03:21 35.58699 -121.22512 27420 ft 443 kts 356°
2026-04-19 03:21 35.61787 -121.22712 27857 ft 446 kts 356°
2026-04-19 03:22 35.64897 -121.22917 28280 ft 448 kts 355°
2026-04-19 03:22 35.68020 -121.23128 28683 ft 451 kts 355°
2026-04-19 03:22 35.71166 -121.23344 29105 ft 454 kts 355°
2026-04-19 03:22 35.74323 -121.23570 29538 ft 455 kts 355°
2026-04-19 03:23 35.77489 -121.23796 29934 ft 457 kts 355°
2026-04-19 03:23 35.80666 -121.24023 30310 ft 458 kts 355°
2026-04-19 03:23 35.83859 -121.24252 30662 ft 461 kts 355°
2026-04-19 03:23 35.87026 -121.24474 30995 ft 464 kts 355°
2026-04-19 03:24 35.90294 -121.24702 31332 ft 466 kts 355°
2026-04-19 03:24 35.93507 -121.24925 31646 ft 469 kts 355°
2026-04-19 03:24 35.96772 -121.25154 31986 ft 472 kts 355°
2026-04-19 03:24 36.00059 -121.25390 32306 ft 474 kts 355°
2026-04-19 03:25 36.03359 -121.25627 32661 ft 475 kts 354°
2026-04-19 03:25 36.06644 -121.25863 33096 ft 472 kts 354°
2026-04-19 03:25 36.09918 -121.26095 33528 ft 470 kts 354°
2026-04-19 03:25 36.13189 -121.26320 33929 ft 470 kts 354°
2026-04-19 03:26 36.16451 -121.26542 34332 ft 469 kts 354°
2026-04-19 03:26 36.19710 -121.26773 34720 ft 469 kts 354°
2026-04-19 03:26 36.22964 -121.27006 35098 ft 468 kts 354°
2026-04-19 03:26 36.26213 -121.27241 35473 ft 467 kts 354°
2026-04-19 03:27 36.29456 -121.27479 35806 ft 467 kts 354°
2026-04-19 03:27 36.32695 -121.27715 36149 ft 466 kts 354°
2026-04-19 03:27 36.35925 -121.27946 36466 ft 465 kts 354°
2026-04-19 03:27 36.39154 -121.28180 36745 ft 465 kts 354°
2026-04-19 03:28 36.42384 -121.28409 37019 ft 464 kts 354°
2026-04-19 03:28 36.45605 -121.28630 37287 ft 464 kts 354°
2026-04-19 03:28 36.48832 -121.28857 37568 ft 464 kts 354°
2026-04-19 03:28 36.52054 -121.29087 37836 ft 463 kts 353°
2026-04-19 03:29 36.55275 -121.29321 37978 ft 463 kts 353°
2026-04-19 03:29 36.61652 -121.29779 38007 ft 457 kts 353°
2026-04-19 03:30 36.67984 -121.30227 38021 ft 455 kts 353°
2026-04-19 03:30 36.74261 -121.30682 38014 ft 454 kts 353°
2026-04-19 03:31 36.80572 -121.31137 38018 ft 454 kts 353°
2026-04-19 03:31 36.86886 -121.31597 38022 ft 455 kts 353°
2026-04-19 03:32 36.93202 -121.32054 38031 ft 455 kts 353°
2026-04-19 03:32 36.99509 -121.32509 38034 ft 454 kts 353°
2026-04-19 03:33 37.05808 -121.32962 38030 ft 452 kts 353°
2026-04-19 03:33 37.12093 -121.33419 38031 ft 452 kts 353°
2026-04-19 03:34 37.18377 -121.33886 38025 ft 452 kts 353°
2026-04-19 03:34 37.24660 -121.34343 38025 ft 453 kts 352°
2026-04-19 03:35 37.30950 -121.34810 38033 ft 453 kts 353°
2026-04-19 03:35 37.37246 -121.35261 38024 ft 453 kts 353°
2026-04-19 03:36 37.43518 -121.35699 38013 ft 450 kts 352°
2026-04-19 03:36 37.49763 -121.36168 38009 ft 450 kts 352°
2026-04-19 03:37 37.56009 -121.36643 38006 ft 450 kts 352°
2026-04-19 03:37 37.62257 -121.37106 38004 ft 449 kts 353°
2026-04-19 03:38 37.68505 -121.37557 38001 ft 449 kts 352°
2026-04-19 03:38 37.74736 -121.38007 38003 ft 449 kts 353°
2026-04-19 03:39 37.80967 -121.38473 38000 ft 449 kts 353°
2026-04-19 03:39 37.87209 -121.38932 37997 ft 448 kts 352°
2026-04-19 03:40 37.93431 -121.39392 37981 ft 447 kts 352°
2026-04-19 03:40 37.99586 -121.39848 37968 ft 446 kts 352°
2026-04-19 03:41 38.05788 -121.40319 37982 ft 447 kts 352°
2026-04-19 03:41 38.11994 -121.40796 37977 ft 446 kts 352°
2026-04-19 03:42 38.18186 -121.41261 37978 ft 446 kts 352°
2026-04-19 03:42 38.24386 -121.41714 37981 ft 447 kts 352°
2026-04-19 03:43 38.30593 -121.42175 37981 ft 447 kts 353°
2026-04-19 03:43 38.36784 -121.42642 37978 ft 446 kts 352°
2026-04-19 03:44 38.42982 -121.43108 37977 ft 446 kts 352°
2026-04-19 03:44 38.49175 -121.43579 37986 ft 446 kts 352°
2026-04-19 03:45 38.55373 -121.44053 37992 ft 446 kts 352°
2026-04-19 03:45 38.61561 -121.44523 37995 ft 446 kts 352°
2026-04-19 03:46 38.67751 -121.44989 37992 ft 446 kts 352°
2026-04-19 03:46 38.73940 -121.45462 37993 ft 445 kts 352°
2026-04-19 03:47 38.80119 -121.45930 37993 ft 445 kts 352°
2026-04-19 03:47 38.86307 -121.46398 37995 ft 445 kts 352°
2026-04-19 03:48 38.92490 -121.46871 37997 ft 446 kts 352°
2026-04-19 03:48 38.98677 -121.47346 38000 ft 445 kts 352°
2026-04-19 03:49 39.04847 -121.47818 37998 ft 444 kts 352°
2026-04-19 03:49 39.11017 -121.48289 38002 ft 444 kts 352°
2026-04-19 03:50 39.17188 -121.48766 37991 ft 444 kts 352°
2026-04-19 03:50 39.23345 -121.49237 37992 ft 443 kts 352°
2026-04-19 03:51 39.29510 -121.49716 37997 ft 443 kts 352°
2026-04-19 03:51 39.35630 -121.50187 37996 ft 443 kts 352°
2026-04-19 03:52 39.41786 -121.50670 38004 ft 443 kts 352°
2026-04-19 03:52 39.47952 -121.51146 37996 ft 444 kts 352°
2026-04-19 03:53 39.54105 -121.51623 37994 ft 443 kts 351°
2026-04-19 03:53 39.60258 -121.52100 37994 ft 443 kts 352°
2026-04-19 03:54 39.66414 -121.52578 37996 ft 443 kts 352°
2026-04-19 03:54 39.72566 -121.53057 37993 ft 443 kts 352°
2026-04-19 03:55 39.78731 -121.53543 38004 ft 444 kts 351°
2026-04-19 03:55 39.84910 -121.54031 38010 ft 444 kts 352°
2026-04-19 03:56 39.91081 -121.54517 38020 ft 445 kts 352°
2026-04-19 03:56 39.97259 -121.55001 38030 ft 444 kts 352°
2026-04-19 03:57 40.03426 -121.55485 38032 ft 444 kts 351°
2026-04-19 03:57 40.09588 -121.55972 38037 ft 444 kts 351°
2026-04-19 03:58 40.15758 -121.56464 38048 ft 444 kts 352°
2026-04-19 03:58 40.21925 -121.56945 38062 ft 444 kts 351°
2026-04-19 03:59 40.28047 -121.57430 38068 ft 443 kts 351°
2026-04-19 03:59 40.34186 -121.57927 38067 ft 442 kts 352°
2026-04-19 04:00 40.40315 -121.58421 38067 ft 440 kts 352°
2026-04-19 04:00 40.46436 -121.58910 38063 ft 441 kts 352°
2026-04-19 04:01 40.51570 -121.59321 38059 ft 441 kts 352°
2026-04-19 04:01 40.60752 -121.60045 38050 ft 440 kts 352°
2026-04-19 04:02 40.66830 -121.60535 38050 ft 440 kts 352°
2026-04-19 04:02 40.72947 -121.61036 38055 ft 440 kts 352°
2026-04-19 04:03 40.79078 -121.61524 38046 ft 442 kts 352°
2026-04-19 04:03 40.85210 -121.62012 38056 ft 441 kts 352°
2026-04-19 04:04 40.91327 -121.62508 38050 ft 440 kts 352°
2026-04-19 04:04 40.97436 -121.63013 38048 ft 440 kts 352°
2026-04-19 04:05 41.03532 -121.63507 38042 ft 439 kts 352°
2026-04-19 04:05 41.09631 -121.64008 38036 ft 439 kts 352°
2026-04-19 04:06 41.15722 -121.64513 38029 ft 438 kts 352°
2026-04-19 04:06 41.21816 -121.65006 38031 ft 440 kts 352°
2026-04-19 04:07 41.27931 -121.65513 38035 ft 440 kts 352°
2026-04-19 04:07 41.34035 -121.66015 38034 ft 440 kts 352°
2026-04-19 04:08 41.40150 -121.66507 38058 ft 440 kts 352°
2026-04-19 04:08 41.46221 -121.67002 38051 ft 441 kts 352°
2026-04-19 04:09 41.52340 -121.67496 38046 ft 440 kts 352°
2026-04-19 04:09 41.58452 -121.68002 38047 ft 440 kts 352°
2026-04-19 04:10 41.64572 -121.68513 38047 ft 442 kts 352°
2026-04-19 04:10 41.70704 -121.69033 38055 ft 441 kts 351°
2026-04-19 04:11 41.76827 -121.69542 38048 ft 440 kts 351°
2026-04-19 04:11 41.82940 -121.70040 38043 ft 441 kts 352°
2026-04-19 04:12 41.89057 -121.70552 38038 ft 440 kts 352°
2026-04-19 04:12 41.95166 -121.71067 38031 ft 440 kts 352°
2026-04-19 04:13 42.01277 -121.71579 38029 ft 440 kts 352°
2026-04-19 04:13 42.07389 -121.72091 38023 ft 441 kts 352°
2026-04-19 04:14 42.13518 -121.72601 38019 ft 441 kts 352°
2026-04-19 04:14 42.19557 -121.73723 38028 ft 438 kts 345°
2026-04-19 04:15 42.25569 -121.75091 38033 ft 438 kts 346°
2026-04-19 04:15 42.31572 -121.76444 38041 ft 438 kts 346°
2026-04-19 04:16 42.37578 -121.77800 38036 ft 437 kts 346°
2026-04-19 04:16 42.43557 -121.79159 38030 ft 435 kts 346°
2026-04-19 04:17 42.49490 -121.80521 38022 ft 436 kts 346°
2026-04-19 04:17 42.55465 -121.81893 38013 ft 436 kts 346°
2026-04-19 04:18 42.61447 -121.83260 38017 ft 435 kts 346°
2026-04-19 04:18 42.67415 -121.84636 38016 ft 436 kts 345°
2026-04-19 04:19 42.73396 -121.86024 38016 ft 436 kts 346°
2026-04-19 04:19 42.79372 -121.87403 38015 ft 435 kts 346°
2026-04-19 04:20 42.85337 -121.88782 38006 ft 434 kts 346°
2026-04-19 04:20 42.91297 -121.90153 38003 ft 434 kts 346°
2026-04-19 04:21 42.97259 -121.91532 38001 ft 434 kts 346°
2026-04-19 04:21 43.03217 -121.92914 37999 ft 434 kts 346°
2026-04-19 04:22 43.09181 -121.94301 38004 ft 435 kts 346°
2026-04-19 04:22 43.15144 -121.95697 38004 ft 435 kts 346°
2026-04-19 04:23 43.21106 -121.97100 38006 ft 435 kts 346°
2026-04-19 04:23 43.27063 -121.98488 38023 ft 434 kts 346°
2026-04-19 04:24 43.32977 -121.99882 38013 ft 435 kts 346°
2026-04-19 04:24 43.38945 -122.01286 38006 ft 435 kts 346°
2026-04-19 04:25 43.44906 -122.02683 37999 ft 435 kts 346°
2026-04-19 04:25 43.50863 -122.04104 37999 ft 435 kts 346°
2026-04-19 04:26 43.56822 -122.05530 37993 ft 435 kts 346°
2026-04-19 04:26 43.62792 -122.06942 38005 ft 436 kts 346°
2026-04-19 04:27 43.68768 -122.08350 38012 ft 436 kts 346°
2026-04-19 04:27 43.74753 -122.09762 38035 ft 436 kts 346°
2026-04-19 04:28 43.80732 -122.11183 38039 ft 436 kts 345°
2026-04-19 04:28 43.86707 -122.12618 38041 ft 435 kts 346°
2026-04-19 04:29 43.92673 -122.14047 38032 ft 436 kts 346°
2026-04-19 04:29 43.98649 -122.15491 38023 ft 435 kts 346°
2026-04-19 04:30 44.04621 -122.16921 38012 ft 436 kts 346°
2026-04-19 04:30 44.10594 -122.18357 38009 ft 435 kts 346°
2026-04-19 04:31 44.16562 -122.19800 38006 ft 434 kts 346°
2026-04-19 04:31 44.22514 -122.21256 37992 ft 434 kts 346°
2026-04-19 04:32 44.28462 -122.22697 37983 ft 434 kts 346°
2026-04-19 04:32 44.34417 -122.24141 38000 ft 434 kts 346°
2026-04-19 04:33 44.40376 -122.25593 37997 ft 435 kts 346°
2026-04-19 04:33 44.46336 -122.27048 37986 ft 434 kts 345°
2026-04-19 04:34 44.52247 -122.28483 37985 ft 434 kts 346°
2026-04-19 04:34 44.58197 -122.29944 37970 ft 434 kts 346°
2026-04-19 04:35 44.64149 -122.31416 37970 ft 434 kts 346°
2026-04-19 04:35 44.70095 -122.32893 37964 ft 435 kts 346°
2026-04-19 04:36 44.76052 -122.34361 37958 ft 434 kts 346°
2026-04-19 04:36 44.82012 -122.35829 37959 ft 434 kts 346°
2026-04-19 04:37 44.87960 -122.37290 37952 ft 434 kts 346°
2026-04-19 04:37 44.93913 -122.38764 37958 ft 434 kts 346°
2026-04-19 04:38 44.99866 -122.40242 37956 ft 435 kts 346°
2026-04-19 04:38 45.05827 -122.41737 37946 ft 436 kts 346°
2026-04-19 04:39 45.11808 -122.43233 37971 ft 436 kts 346°
2026-04-19 04:39 45.17797 -122.44735 37980 ft 436 kts 346°
2026-04-19 04:40 45.23761 -122.46224 37980 ft 435 kts 346°
2026-04-19 04:40 45.29731 -122.47725 37965 ft 435 kts 346°
2026-04-19 04:41 45.35678 -122.49219 37957 ft 434 kts 346°
2026-04-19 04:41 45.41625 -122.50722 37934 ft 436 kts 346°
2026-04-19 04:42 45.44619 -122.51484 37073 ft 440 kts 346°
2026-04-19 04:42 45.47624 -122.52244 36266 ft 435 kts 346°
2026-04-19 04:42 45.50579 -122.52988 35494 ft 429 kts 346°
2026-04-19 04:42 45.53505 -122.53727 34766 ft 426 kts 346°
2026-04-19 04:43 45.56350 -122.54446 34621 ft 415 kts 346°
2026-04-19 04:43 45.59180 -122.55162 34518 ft 402 kts 346°
2026-04-19 04:43 45.61915 -122.55858 34249 ft 398 kts 346°
2026-04-19 04:43 45.64636 -122.56554 33754 ft 398 kts 346°
2026-04-19 04:44 45.67357 -122.57248 33285 ft 397 kts 346°
2026-04-19 04:44 45.70075 -122.57943 32811 ft 396 kts 346°
2026-04-19 04:44 45.72782 -122.58637 32358 ft 395 kts 346°
2026-04-19 04:44 45.75485 -122.59334 31886 ft 395 kts 345°
2026-04-19 04:45 45.78186 -122.60019 31432 ft 393 kts 346°
2026-04-19 04:45 45.80845 -122.60678 31002 ft 393 kts 347°
2026-04-19 04:45 45.83539 -122.61341 30556 ft 392 kts 347°
2026-04-19 04:45 45.86226 -122.61996 30121 ft 392 kts 346°
2026-04-19 04:46 45.88911 -122.62648 29690 ft 390 kts 347°
2026-04-19 04:46 45.91576 -122.63302 29273 ft 388 kts 347°
2026-04-19 04:46 45.94238 -122.63962 28847 ft 387 kts 347°
2026-04-19 04:46 45.96880 -122.64625 28455 ft 384 kts 347°
2026-04-19 04:47 45.99502 -122.65279 28057 ft 382 kts 347°
2026-04-19 04:47 46.02115 -122.65929 27657 ft 381 kts 347°
2026-04-19 04:47 46.04717 -122.66576 27245 ft 378 kts 347°
2026-04-19 04:47 46.07301 -122.67214 26832 ft 375 kts 347°
2026-04-19 04:48 46.08999 -122.67635 26547 ft 372 kts 348°
2026-04-19 04:48 46.12403 -122.68413 25985 ft 369 kts 349°
2026-04-19 04:48 46.14086 -122.68751 25699 ft 368 kts 350°
2026-04-19 04:48 46.16616 -122.69230 25259 ft 365 kts 351°
2026-04-19 04:49 46.19124 -122.69693 24832 ft 363 kts 351°
2026-04-19 04:49 46.21629 -122.70163 24377 ft 362 kts 351°
2026-04-19 04:49 46.24114 -122.70637 23925 ft 359 kts 351°
2026-04-19 04:49 46.26586 -122.71118 23478 ft 358 kts 351°
2026-04-19 04:50 46.29046 -122.71607 23041 ft 356 kts 350°
2026-04-19 04:50 46.31499 -122.72095 22597 ft 356 kts 352°
2026-04-19 04:50 46.33969 -122.72282 22153 ft 355 kts 357°
2026-04-19 04:50 46.36435 -122.72369 21717 ft 354 kts 357°
2026-04-19 04:51 46.38892 -122.72456 21294 ft 352 kts 357°
2026-04-19 04:51 46.41336 -122.72546 20867 ft 351 kts 357°
2026-04-19 04:51 46.43767 -122.72640 20448 ft 349 kts 357°
2026-04-19 04:51 46.46192 -122.72732 20031 ft 348 kts 357°
2026-04-19 04:52 46.48607 -122.72819 19617 ft 347 kts 358°
2026-04-19 04:52 46.51013 -122.72905 19204 ft 345 kts 358°
2026-04-19 04:52 46.53411 -122.72992 18791 ft 344 kts 358°
2026-04-19 04:52 46.55798 -122.73076 18386 ft 343 kts 358°
2026-04-19 04:53 46.58181 -122.73158 17976 ft 342 kts 358°
2026-04-19 04:53 46.60545 -122.73240 17581 ft 339 kts 358°
2026-04-19 04:53 46.62900 -122.73324 17188 ft 338 kts 357°
2026-04-19 04:53 46.65242 -122.73411 16797 ft 336 kts 358°
2026-04-19 04:54 46.67577 -122.73500 16416 ft 335 kts 357°
2026-04-19 04:54 46.69902 -122.73587 16032 ft 333 kts 358°
2026-04-19 04:54 46.72215 -122.73668 15655 ft 332 kts 358°
2026-04-19 04:54 46.74517 -122.73750 15284 ft 331 kts 358°
2026-04-19 04:55 46.76808 -122.73562 14910 ft 330 kts 10°
2026-04-19 04:55 46.79001 -122.72609 14541 ft 330 kts 24°
2026-04-19 04:55 46.80978 -122.70931 14162 ft 328 kts 38°
2026-04-19 04:55 46.82745 -122.68837 13783 ft 326 kts 40°
2026-04-19 04:56 46.84502 -122.66738 13396 ft 326 kts 41°
2026-04-19 04:56 46.86203 -122.64564 13019 ft 324 kts 43°
2026-04-19 04:56 46.87850 -122.62322 12656 ft 323 kts 45°
2026-04-19 04:56 46.89469 -122.60060 12280 ft 321 kts 45°
2026-04-19 04:57 46.91069 -122.57805 11911 ft 319 kts 45°
2026-04-19 04:57 46.92649 -122.55480 11362 ft 323 kts 47°
2026-04-19 04:57 46.94184 -122.53130 11116 ft 317 kts 48°
2026-04-19 04:57 46.95684 -122.50815 10882 ft 307 kts 48°
2026-04-19 04:58 46.97101 -122.48646 10626 ft 292 kts 48°
2026-04-19 04:58 46.98586 -122.46666 10151 ft 288 kts 37°
2026-04-19 04:58 47.00281 -122.45141 9619 ft 285 kts 31°
2026-04-19 04:58 47.01993 -122.43699 9102 ft 282 kts 31°
2026-04-19 04:59 47.03680 -122.42274 8626 ft 277 kts 31°
2026-04-19 04:59 47.05335 -122.40877 8239 ft 273 kts 31°
2026-04-19 04:59 47.06970 -122.39497 7865 ft 270 kts 31°
2026-04-19 04:59 47.08590 -122.38128 7487 ft 268 kts 31°
2026-04-19 05:00 47.10200 -122.36767 7128 ft 267 kts 31°
2026-04-19 05:00 47.11808 -122.35425 6762 ft 265 kts 28°
2026-04-19 05:00 47.13530 -122.34475 6400 ft 264 kts 15°
2026-04-19 05:00 47.15313 -122.33826 6040 ft 263 kts 15°
2026-04-19 05:01 47.17074 -122.33166 5678 ft 260 kts 16°
2026-04-19 05:01 47.18825 -122.32505 5315 ft 258 kts 15°
2026-04-19 05:01 47.20590 -122.32044 4913 ft 258 kts
2026-04-19 05:01 47.22379 -122.31962 4567 ft 256 kts
2026-04-19 05:02 47.24137 -122.31967 4228 ft 249 kts
2026-04-19 05:02 47.25823 -122.31962 3901 ft 235 kts
2026-04-19 05:02 47.27417 -122.31950 3597 ft 223 kts
2026-04-19 05:02 47.28932 -122.31937 3311 ft 214 kts
2026-04-19 05:03 47.30380 -122.31925 3058 ft 201 kts
2026-04-19 05:03 47.31741 -122.31914 2772 ft 190 kts
2026-04-19 05:03 47.33021 -122.31903 2518 ft 178 kts
2026-04-19 05:03 47.34221 -122.31892 2305 ft 166 kts
2026-04-19 05:04 47.35310 -122.31883 2089 ft 149 kts
2026-04-19 05:04 47.36315 -122.31872 1889 ft 142 kts
2026-04-19 05:04 47.37287 -122.31864 1716 ft 138 kts
2026-04-19 05:04 47.38248 -122.31856 1534 ft 137 kts
2026-04-19 05:05 47.39196 -122.31848 1355 ft 136 kts
2026-04-19 05:05 47.40143 -122.31838 1169 ft 136 kts
2026-04-19 05:05 47.41087 -122.31847 976 ft 135 kts
2026-04-19 05:05 47.42031 -122.31846 793 ft 135 kts
2026-04-19 05:06 47.42969 -122.31815 630 ft 135 kts
2026-04-19 05:06 47.43903 -122.31813 435 ft 133 kts
2026-04-19 05:06 47.44804 -122.31803 393 ft 118 kts
2026-04-19 05:06 47.45491 -122.31794 403 ft 76 kts
2026-04-19 05:07 47.45840 -122.31737 412 ft 26 kts 24°
2026-04-19 05:07 47.45939 -122.31647 416 ft 14 kts 40°
2026-04-19 05:07 47.45995 -122.31540 420 ft 12 kts 68°
2026-04-19 05:07 47.46014 -122.31435 424 ft 9 kts 84°
2026-04-19 05:08 47.46012 -122.31346 419 ft 11 kts 92°
2026-04-19 05:08 47.46011 -122.31057 427 ft 14 kts 90°
2026-04-19 05:08 47.46011 -122.30912 435 ft 14 kts 90°
2026-04-19 05:09 47.46008 -122.30777 431 ft 13 kts 92°
2026-04-19 05:09 47.46001 -122.30658 431 ft 10 kts 118°
2026-04-19 05:09 47.45934 -122.30618 437 ft 14 kts 182°
2026-04-19 05:09 47.45827 -122.30620 433 ft 16 kts 181°
2026-04-19 05:10 47.45707 -122.30623 434 ft 18 kts 181°
2026-04-19 05:10 47.45578 -122.30626 427 ft 20 kts 180°
2026-04-19 05:10 47.45430 -122.30625 425 ft 23 kts 179°
2026-04-19 05:10 47.45259 -122.30621 421 ft 27 kts 179°
2026-04-19 05:11 47.45066 -122.30626 411 ft 26 kts 180°
2026-04-19 05:11 47.44899 -122.30626 408 ft 24 kts 180°
2026-04-19 05:11 47.44825 -122.30542 406 ft 15 kts 32°
2026-04-19 05:11 47.44880 -122.30483 409 ft 6 kts 76°
2026-04-19 05:12 47.44891 -122.30437 409 ft 0 kts 72°